Time,TemperatureF,DewpointF,PressureIn,WindDirection,WindDirectionDegrees,WindSpeedMPH,WindSpeedGustMPH,Humidity,HourlyPrecipIn,Conditions,Clouds,dailyrainin,SoftwareType,DateUTC
2013-08-23 00:02:00,67.6,63.6,0.00,NNW,338,0.0,0.0,87,0.00,,,0.00,WUHU216HW,2013-08-23 04:02:00,
2013-08-23 00:07:00,67.2,63.2,0.00,NNW,338,0.0,0.0,87,0.00,,,0.00,WUHU216HW,2013-08-23 04:07:00,
2013-08-23 00:12:00,67.2,63.2,0.00,NNW,338,0.0,0.0,87,0.00,,,0.00,WUHU216HW,2013-08-23 04:12:00,
2013-08-23 00:17:00,67.2,63.2,0.00,NNW,338,0.0,0.0,87,0.00,,,0.00,WUHU216HW,2013-08-23 04:17:00,
2013-08-23 00:22:00,67.2,63.2,0.00,NNW,338,0.0,0.0,87,0.00,,,0.00,WUHU216HW,2013-08-23 04:22:00,
2013-08-23 00:28:00,67.2,63.5,0.00,NNW,338,0.0,0.0,88,0.00,,,0.00,WUHU216HW,2013-08-23 04:28:00,
2013-08-23 00:33:00,67.1,63.3,0.00,NNW,338,0.0,0.0,88,0.00,,,0.00,WUHU216HW,2013-08-23 04:33:00,
2013-08-23 00:38:00,67.1,63.3,0.00,NNW,338,0.0,0.0,88,0.00,,,0.00,WUHU216HW,2013-08-23 04:38:00,
2013-08-23 00:53:00,66.7,63.0,0.00,NNW,338,0.0,0.0,88,0.00,,,0.00,WUHU216HW,2013-08-23 04:53:00,
2013-08-23 00:58:00,66.7,63.0,0.00,NNW,338,0.0,0.0,88,0.00,,,0.00,WUHU216HW,2013-08-23 04:58:00,
2013-08-23 01:03:00,66.7,63.0,0.00,NNW,338,0.0,0.0,88,0.00,,,0.00,WUHU216HW,2013-08-23 05:03:00,
2013-08-23 01:08:00,66.7,63.0,0.00,NNW,338,0.0,0.0,88,0.00,,,0.00,WUHU216HW,2013-08-23 05:08:00,
2013-08-23 01:13:00,66.7,63.0,0.00,NNW,338,0.0,0.0,88,0.00,,,0.00,WUHU216HW,2013-08-23 05:13:00,
2013-08-23 01:18:00,66.7,63.0,0.00,NNW,338,0.0,0.0,88,0.00,,,0.00,WUHU216HW,2013-08-23 05:18:00,
2013-08-23 01:23:00,66.7,63.0,0.00,NNW,338,0.0,0.0,88,0.00,,,0.00,WUHU216HW,2013-08-23 05:23:00,
2013-08-23 01:28:00,66.7,63.0,0.00,North,0,0.0,0.0,88,0.00,,,0.00,WUHU216HW,2013-08-23 05:28:00,
2013-08-23 01:33:00,66.7,63.0,0.00,NNW,338,0.0,0.0,88,0.00,,,0.00,WUHU216HW,2013-08-23 05:33:00,
2013-08-23 01:38:00,66.5,62.8,0.00,NNW,338,0.0,0.0,88,0.00,,,0.00,WUHU216HW,2013-08-23 05:38:00,
2013-08-23 01:43:00,66.3,62.6,0.00,NNW,338,0.0,0.0,88,0.00,,,0.00,WUHU216HW,2013-08-23 05:43:00,
2013-08-23 01:46:00,66.2,62.3,0.00,NNW,338,0.0,0.0,88,0.00,,,0.00,WUHU216HW,2013-08-23 05:46:00,
2013-08-23 01:48:00,66.2,62.3,0.00,NNW,338,0.0,0.0,88,0.00,,,0.00,WUHU216HW,2013-08-23 05:48:00,
2013-08-23 01:59:00,66.0,62.6,0.00,NNW,338,0.0,0.0,89,0.00,,,0.00,WUHU216HW,2013-08-23 05:59:00,
2013-08-23 02:04:00,66.0,62.6,0.00,NNW,338,0.0,0.0,89,0.00,,,0.00,WUHU216HW,2013-08-23 06:04:00,
2013-08-23 02:09:00,66.0,62.6,0.00,NNW,338,0.0,0.0,89,0.00,,,0.00,WUHU216HW,2013-08-23 06:09:00,
2013-08-23 02:14:00,66.0,62.6,0.00,NNW,338,0.0,0.0,89,0.00,,,0.00,WUHU216HW,2013-08-23 06:14:00,
2013-08-23 02:18:00,66.0,62.6,0.00,NNW,338,0.0,0.0,89,0.00,,,0.00,WUHU216HW,2013-08-23 06:18:00,
2013-08-23 02:23:00,66.0,62.6,0.00,NNW,338,0.0,0.0,89,0.00,,,0.00,WUHU216HW,2013-08-23 06:23:00,
2013-08-23 02:28:00,65.8,62.4,0.00,NNW,338,0.0,0.0,89,0.00,,,0.00,WUHU216HW,2013-08-23 06:28:00,
2013-08-23 02:39:00,65.8,62.4,0.00,NNW,338,0.0,0.0,89,0.00,,,0.00,WUHU216HW,2013-08-23 06:39:00,
2013-08-23 02:44:00,65.6,62.3,0.00,NNW,338,0.0,0.0,89,0.00,,,0.00,WUHU216HW,2013-08-23 06:44:00,
2013-08-23 02:49:00,65.4,62.1,0.00,NNW,338,0.0,0.0,89,0.00,,,0.00,WUHU216HW,2013-08-23 06:49:00,
2013-08-23 02:54:00,65.4,62.1,0.00,NNW,338,0.0,0.0,89,0.00,,,0.00,WUHU216HW,2013-08-23 06:54:00,
2013-08-23 02:59:00,65.4,62.1,0.00,NNW,338,0.0,0.0,89,0.00,,,0.00,WUHU216HW,2013-08-23 06:59:00,
2013-08-23 03:04:00,65.4,62.1,0.00,NNW,338,0.0,0.0,89,0.00,,,0.00,WUHU216HW,2013-08-23 07:04:00,
2013-08-23 03:09:00,65.3,61.9,0.00,NNW,338,0.0,0.0,89,0.00,,,0.00,WUHU216HW,2013-08-23 07:09:00,
2013-08-23 03:14:00,65.3,61.9,0.00,NNW,338,0.0,0.0,89,0.00,,,0.00,WUHU216HW,2013-08-23 07:14:00,
2013-08-23 03:19:00,65.3,61.9,0.00,NNW,338,0.0,0.0,89,0.00,,,0.00,WUHU216HW,2013-08-23 07:19:00,
2013-08-23 03:24:00,65.1,61.8,0.00,NNW,338,0.0,0.0,89,0.00,,,0.00,WUHU216HW,2013-08-23 07:24:00,
2013-08-23 03:29:00,64.9,61.6,0.00,NNW,338,0.0,0.0,89,0.00,,,0.00,WUHU216HW,2013-08-23 07:29:00,
2013-08-23 03:34:00,64.7,61.5,0.00,NNW,338,0.0,0.0,89,0.00,,,0.00,WUHU216HW,2013-08-23 07:34:00,
2013-08-23 03:39:00,64.5,61.3,0.00,NNW,338,0.0,0.0,89,0.00,,,0.00,WUHU216HW,2013-08-23 07:39:00,
2013-08-23 03:44:00,64.5,61.3,0.00,NNW,338,0.0,0.0,89,0.00,,,0.00,WUHU216HW,2013-08-23 07:44:00,
2013-08-23 03:49:00,64.5,61.3,0.00,NNW,338,0.0,0.0,89,0.00,,,0.00,WUHU216HW,2013-08-23 07:49:00,
2013-08-23 03:51:00,64.4,61.1,0.00,NNW,338,0.0,0.0,89,0.00,,,0.00,WUHU216HW,2013-08-23 07:51:00,
2013-08-23 03:57:00,64.4,61.1,0.00,NNW,338,0.0,0.0,89,0.00,,,0.00,WUHU216HW,2013-08-23 07:57:00,
2013-08-23 04:02:00,64.2,60.9,0.00,NNW,338,0.0,0.0,89,0.00,,,0.00,WUHU216HW,2013-08-23 08:02:00,
2013-08-23 04:07:00,64.2,60.9,0.00,NNW,338,0.0,0.0,89,0.00,,,0.00,WUHU216HW,2013-08-23 08:07:00,
2013-08-23 04:13:00,64.2,60.9,0.00,NNW,338,0.0,0.0,89,0.00,,,0.00,WUHU216HW,2013-08-23 08:13:00,
2013-08-23 04:18:00,64.2,60.9,0.00,NNW,338,0.0,0.0,89,0.00,,,0.00,WUHU216HW,2013-08-23 08:18:00,
2013-08-23 04:23:00,64.2,60.9,0.00,NNW,338,0.0,0.0,89,0.00,,,0.00,WUHU216HW,2013-08-23 08:23:00,
2013-08-23 04:28:00,64.2,60.9,0.00,NNW,338,0.0,0.0,89,0.00,,,0.00,WUHU216HW,2013-08-23 08:28:00,
2013-08-23 04:33:00,64.2,60.9,0.00,NNW,338,0.0,0.0,89,0.00,,,0.00,WUHU216HW,2013-08-23 08:33:00,
2013-08-23 04:38:00,64.2,60.9,0.00,NNW,338,0.0,0.0,89,0.00,,,0.00,WUHU216HW,2013-08-23 08:38:00,
2013-08-23 04:44:00,64.2,60.9,0.00,NNW,338,0.0,0.0,89,0.00,,,0.00,WUHU216HW,2013-08-23 08:44:00,
2013-08-23 04:49:00,64.2,60.9,0.00,NNW,338,0.0,0.0,89,0.00,,,0.00,WUHU216HW,2013-08-23 08:49:00,
2013-08-23 04:54:00,64.0,60.8,0.00,NNW,338,0.0,0.0,89,0.00,,,0.00,WUHU216HW,2013-08-23 08:54:00,
2013-08-23 04:59:00,64.2,60.9,0.00,NNW,338,0.0,0.0,89,0.00,,,0.00,WUHU216HW,2013-08-23 08:59:00,
2013-08-23 05:04:00,64.2,60.9,0.00,NNW,338,0.0,0.0,89,0.00,,,0.00,WUHU216HW,2013-08-23 09:04:00,
2013-08-23 05:09:00,64.2,60.9,0.00,NNW,338,0.0,0.0,89,0.00,,,0.00,WUHU216HW,2013-08-23 09:09:00,
2013-08-23 05:15:00,64.2,61.3,0.00,NNW,338,0.0,0.0,90,0.00,,,0.00,WUHU216HW,2013-08-23 09:15:00,
2013-08-23 05:20:00,64.2,61.3,0.00,NNW,338,0.0,0.0,90,0.00,,,0.00,WUHU216HW,2013-08-23 09:20:00,
2013-08-23 05:25:00,64.4,61.5,0.00,NNW,338,0.0,0.0,90,0.00,,,0.00,WUHU216HW,2013-08-23 09:25:00,
2013-08-23 05:30:00,64.5,61.6,0.00,NNW,338,0.0,0.0,90,0.00,,,0.00,WUHU216HW,2013-08-23 09:30:00,
2013-08-23 05:35:00,64.5,61.6,0.00,NNW,338,0.0,0.0,90,0.00,,,0.00,WUHU216HW,2013-08-23 09:35:00,
2013-08-23 05:40:00,64.5,61.6,0.00,NNW,338,0.0,0.0,90,0.00,,,0.00,WUHU216HW,2013-08-23 09:40:00,
2013-08-23 05:45:00,64.5,61.6,0.00,NNW,338,0.0,0.0,90,0.00,,,0.00,WUHU216HW,2013-08-23 09:45:00,
2013-08-23 05:50:00,64.5,61.6,0.00,NNW,338,0.0,0.0,90,0.00,,,0.00,WUHU216HW,2013-08-23 09:50:00,
2013-08-23 05:56:00,64.5,61.6,0.00,NNW,338,0.0,0.0,90,0.00,,,0.00,WUHU216HW,2013-08-23 09:56:00,
2013-08-23 06:01:00,64.5,61.6,0.00,NNW,338,0.0,0.0,90,0.00,,,0.00,WUHU216HW,2013-08-23 10:01:00,
2013-08-23 06:06:00,64.7,61.8,0.00,NNW,338,0.0,0.0,90,0.00,,,0.00,WUHU216HW,2013-08-23 10:06:00,
2013-08-23 06:11:00,64.7,61.8,0.00,NNW,338,0.0,0.0,90,0.00,,,0.00,WUHU216HW,2013-08-23 10:11:00,
2013-08-23 06:16:00,64.7,61.8,0.00,NNW,338,0.0,0.0,90,0.00,,,0.00,WUHU216HW,2013-08-23 10:16:00,
2013-08-23 06:21:00,64.7,61.8,0.00,NNW,338,0.0,0.0,90,0.00,,,0.00,WUHU216HW,2013-08-23 10:21:00,
2013-08-23 06:26:00,64.9,62.0,0.00,NNW,338,0.0,0.0,90,0.00,,,0.00,WUHU216HW,2013-08-23 10:26:00,
2013-08-23 06:31:00,64.9,62.0,0.00,NNW,338,0.0,0.0,90,0.00,,,0.00,WUHU216HW,2013-08-23 10:31:00,
2013-08-23 06:45:00,64.9,62.0,0.00,NNW,338,0.0,0.0,90,0.00,,,0.00,WUHU216HW,2013-08-23 10:45:00,
2013-08-23 06:50:00,64.9,62.0,0.00,NNW,338,0.0,0.0,90,0.00,,,0.00,WUHU216HW,2013-08-23 10:50:00,
2013-08-23 06:55:00,64.9,62.0,0.00,NNW,338,0.0,0.0,90,0.00,,,0.00,WUHU216HW,2013-08-23 10:55:00,
2013-08-23 07:00:00,64.9,62.0,0.00,NNW,338,0.0,0.0,90,0.00,,,0.00,WUHU216HW,2013-08-23 11:00:00,
2013-08-23 07:05:00,64.9,62.0,0.00,NNW,338,0.0,0.0,90,0.00,,,0.00,WUHU216HW,2013-08-23 11:05:00,
2013-08-23 07:10:00,64.9,62.0,0.00,NNW,338,0.0,0.0,90,0.00,,,0.00,WUHU216HW,2013-08-23 11:10:00,
2013-08-23 07:15:00,64.9,62.0,0.00,NNW,338,0.0,0.0,90,0.00,,,0.00,WUHU216HW,2013-08-23 11:15:00,
2013-08-23 07:20:00,64.7,62.0,0.00,NNW,338,0.0,0.0,90,0.00,,,0.00,WUHU216HW,2013-08-23 11:20:00,
2013-08-23 07:25:00,64.9,62.0,0.00,NNW,338,0.0,0.0,90,0.00,,,0.00,WUHU216HW,2013-08-23 11:25:00,
2013-08-23 07:30:00,64.7,61.8,0.00,NNW,338,0.0,0.0,90,0.00,,,0.00,WUHU216HW,2013-08-23 11:30:00,
2013-08-23 07:35:00,64.7,61.8,0.00,NNW,338,0.0,0.0,90,0.00,,,0.00,WUHU216HW,2013-08-23 11:35:00,
2013-08-23 07:40:00,64.7,61.8,0.00,NNW,338,0.0,0.0,90,0.00,,,0.00,WUHU216HW,2013-08-23 11:40:00,
2013-08-23 07:45:00,64.7,61.8,0.00,NNW,338,0.0,0.0,90,0.00,,,0.00,WUHU216HW,2013-08-23 11:45:00,
2013-08-23 07:50:00,64.5,61.6,0.00,NNW,338,0.0,0.0,90,0.00,,,0.00,WUHU216HW,2013-08-23 11:50:00,
2013-08-23 07:55:00,64.5,61.6,0.00,NNW,338,0.0,0.0,90,0.00,,,0.00,WUHU216HW,2013-08-23 11:55:00,
2013-08-23 08:00:00,64.7,61.8,0.00,NNW,338,0.0,0.0,90,0.00,,,0.00,WUHU216HW,2013-08-23 12:00:00,
2013-08-23 08:05:00,64.7,62.1,0.00,NNW,338,0.0,0.0,91,0.00,,,0.00,WUHU216HW,2013-08-23 12:05:00,
2013-08-23 08:10:00,64.7,62.1,0.00,NNW,338,0.0,0.0,91,0.00,,,0.00,WUHU216HW,2013-08-23 12:10:00,
2013-08-23 08:15:00,64.9,62.2,0.00,NNW,338,0.0,0.0,91,0.00,,,0.00,WUHU216HW,2013-08-23 12:15:00,
2013-08-23 08:20:00,64.9,62.2,0.00,NNW,338,0.0,0.0,91,0.00,,,0.00,WUHU216HW,2013-08-23 12:20:00,
2013-08-23 08:25:00,65.1,62.4,0.00,NNW,338,0.0,0.0,91,0.00,,,0.00,WUHU216HW,2013-08-23 12:25:00,
2013-08-23 08:30:00,65.1,62.4,0.00,NNW,338,0.0,0.0,91,0.00,,,0.00,WUHU216HW,2013-08-23 12:30:00,
2013-08-23 08:35:00,65.1,62.4,0.00,NNW,338,0.0,0.0,91,0.00,,,0.00,WUHU216HW,2013-08-23 12:35:00,
2013-08-23 08:40:00,65.3,62.6,0.00,NNW,338,0.0,0.0,91,0.00,,,0.00,WUHU216HW,2013-08-23 12:40:00,
2013-08-23 08:45:00,65.3,62.6,0.00,NNW,338,0.0,0.0,91,0.00,,,0.00,WUHU216HW,2013-08-23 12:45:00,
2013-08-23 08:50:00,65.3,62.6,0.00,NNW,338,0.0,0.0,91,0.00,,,0.00,WUHU216HW,2013-08-23 12:50:00,
2013-08-23 08:55:00,65.4,62.7,0.00,NNW,338,0.0,0.0,91,0.00,,,0.00,WUHU216HW,2013-08-23 12:55:00,
2013-08-23 09:00:00,65.4,62.7,0.00,NNW,338,0.0,0.0,91,0.00,,,0.00,WUHU216HW,2013-08-23 13:00:00,
2013-08-23 09:05:00,65.6,62.9,0.00,NNW,338,0.0,0.0,91,0.00,,,0.00,WUHU216HW,2013-08-23 13:05:00,
2013-08-23 09:10:00,65.6,62.9,0.00,NNW,338,0.0,0.0,91,0.00,,,0.00,WUHU216HW,2013-08-23 13:10:00,
2013-08-23 09:15:00,65.6,62.9,0.00,NNW,338,0.0,0.0,91,0.00,,,0.00,WUHU216HW,2013-08-23 13:15:00,
2013-08-23 09:20:00,65.8,62.9,0.00,NNW,338,0.0,0.0,91,0.00,,,0.00,WUHU216HW,2013-08-23 13:20:00,
2013-08-23 09:25:00,65.8,63.1,0.00,NNW,338,0.0,0.0,91,0.00,,,0.00,WUHU216HW,2013-08-23 13:25:00,
2013-08-23 09:30:00,66.0,63.2,0.00,NNW,338,0.0,0.0,91,0.00,,,0.00,WUHU216HW,2013-08-23 13:30:00,
2013-08-23 09:35:00,66.0,63.2,0.00,NNW,338,0.0,0.0,91,0.00,,,0.00,WUHU216HW,2013-08-23 13:35:00,
2013-08-23 09:40:00,66.3,63.6,0.00,NNW,338,0.0,0.0,91,0.00,,,0.00,WUHU216HW,2013-08-23 13:40:00,
2013-08-23 09:45:00,66.5,63.8,0.00,NNW,338,0.0,0.0,91,0.00,,,0.00,WUHU216HW,2013-08-23 13:45:00,
2013-08-23 09:50:00,66.9,64.1,0.00,NNW,338,0.0,0.0,91,0.00,,,0.00,WUHU216HW,2013-08-23 13:50:00,
2013-08-23 09:55:00,67.2,64.5,0.00,NNW,338,0.0,0.0,91,0.00,,,0.00,WUHU216HW,2013-08-23 13:55:00,
2013-08-23 10:00:00,67.6,64.8,0.00,NNW,338,0.0,0.0,91,0.00,,,0.00,WUHU216HW,2013-08-23 14:00:00,
2013-08-23 10:05:00,68.0,65.5,0.00,NNW,338,0.0,0.0,92,0.00,,,0.00,WUHU216HW,2013-08-23 14:05:00,
2013-08-23 10:10:00,68.1,65.7,0.00,NNW,338,0.0,0.0,92,0.00,,,0.00,WUHU216HW,2013-08-23 14:10:00,
2013-08-23 10:15:00,68.3,65.9,0.00,NNW,338,0.0,0.0,92,0.00,,,0.00,WUHU216HW,2013-08-23 14:15:00,
2013-08-23 10:20:00,68.7,66.2,0.00,NNW,338,0.0,0.0,92,0.00,,,0.00,WUHU216HW,2013-08-23 14:20:00,
2013-08-23 10:25:00,68.9,66.4,0.00,NNW,338,0.0,0.0,92,0.00,,,0.00,WUHU216HW,2013-08-23 14:25:00,
2013-08-23 10:30:00,69.2,66.5,0.00,NNW,338,0.0,0.0,91,0.00,,,0.00,WUHU216HW,2013-08-23 14:30:00,
2013-08-23 10:35:00,69.6,66.8,0.00,NNW,338,0.0,0.0,91,0.00,,,0.00,WUHU216HW,2013-08-23 14:35:00,
2013-08-23 10:40:00,69.9,67.2,0.00,SE,135,0.0,0.0,91,0.00,,,0.00,WUHU216HW,2013-08-23 14:40:00,
2013-08-23 10:45:00,70.5,67.7,0.00,West,270,0.0,0.0,91,0.00,,,0.00,WUHU216HW,2013-08-23 14:45:00,
2013-08-23 10:50:00,71.0,68.3,0.00,WNW,293,0.0,0.0,91,0.00,,,0.00,WUHU216HW,2013-08-23 14:50:00,
2013-08-23 10:55:00,71.4,68.6,0.00,WNW,293,0.0,0.0,91,0.00,,,0.00,WUHU216HW,2013-08-23 14:55:00,
2013-08-23 11:00:00,71.7,69.0,0.00,WNW,293,0.0,0.0,91,0.00,,,0.00,WUHU216HW,2013-08-23 15:00:00,
2013-08-23 11:05:00,72.3,69.5,0.00,WNW,293,0.0,0.0,91,0.00,,,0.00,WUHU216HW,2013-08-23 15:05:00,
2013-08-23 11:10:00,72.6,69.9,0.00,WNW,293,0.0,0.0,91,0.00,,,0.00,WUHU216HW,2013-08-23 15:10:00,
2013-08-23 11:15:00,73.0,70.2,0.00,SW,225,0.0,0.0,91,0.00,,,0.00,WUHU216HW,2013-08-23 15:15:00,
2013-08-23 11:20:00,73.2,70.1,0.00,SSW,203,0.0,0.0,90,0.00,,,0.00,WUHU216HW,2013-08-23 15:20:00,
2013-08-23 11:25:00,73.5,70.5,0.00,WNW,293,0.0,0.0,90,0.00,,,0.00,WUHU216HW,2013-08-23 15:25:00,
2013-08-23 11:30:00,73.9,70.5,0.00,WNW,293,0.0,0.0,89,0.00,,,0.00,WUHU216HW,2013-08-23 15:30:00,
2013-08-23 11:35:00,74.1,70.7,0.00,West,270,0.0,0.0,89,0.00,,,0.00,WUHU216HW,2013-08-23 15:35:00,
2013-08-23 11:40:00,74.3,70.5,0.00,West,270,0.0,0.0,88,0.00,,,0.00,WUHU216HW,2013-08-23 15:40:00,
2013-08-23 11:45:00,74.3,70.3,0.00,West,270,0.0,0.0,87,0.00,,,0.00,WUHU216HW,2013-08-23 15:45:00,
2013-08-23 11:50:00,74.4,70.3,0.00,WNW,293,0.0,0.0,87,0.00,,,0.00,WUHU216HW,2013-08-23 15:50:00,
2013-08-23 11:55:00,74.6,70.2,0.00,WNW,293,0.0,0.0,86,0.00,,,0.00,WUHU216HW,2013-08-23 15:55:00,
2013-08-23 12:00:00,74.8,70.4,0.00,WNW,293,0.0,0.0,86,0.00,,,0.00,WUHU216HW,2013-08-23 16:00:00,
2013-08-23 12:05:00,75.0,70.2,0.00,North,0,0.0,0.0,85,0.00,,,0.00,WUHU216HW,2013-08-23 16:05:00,
2013-08-23 12:10:00,75.5,70.9,0.00,North,0,0.0,0.0,85,0.00,,,0.00,WUHU216HW,2013-08-23 16:10:00,
2013-08-23 12:15:00,75.7,70.5,0.00,WNW,293,0.0,0.0,84,0.00,,,0.00,WUHU216HW,2013-08-23 16:15:00,
2013-08-23 12:20:00,75.9,70.4,0.00,NW,315,0.0,0.0,83,0.00,,,0.00,WUHU216HW,2013-08-23 16:20:00,
2013-08-23 12:25:00,75.9,70.4,0.00,West,270,0.0,0.0,83,0.00,,,0.00,WUHU216HW,2013-08-23 16:25:00,
2013-08-23 12:30:00,75.9,70.0,0.00,WNW,293,0.0,0.0,82,0.00,,,0.00,WUHU216HW,2013-08-23 16:30:00,
2013-08-23 12:35:00,76.1,70.2,0.00,SSE,158,0.0,0.0,82,0.00,,,0.00,WUHU216HW,2013-08-23 16:35:00,
2013-08-23 12:41:00,76.4,70.1,0.00,SSE,158,0.0,0.0,81,0.00,,,0.00,WUHU216HW,2013-08-23 16:41:00,
2013-08-23 12:49:00,76.8,70.1,0.00,WNW,293,0.0,0.0,80,0.00,,,0.00,WUHU216HW,2013-08-23 16:49:00,
2013-08-23 12:54:00,77.1,70.1,0.00,West,270,0.0,0.0,79,0.00,,,0.00,WUHU216HW,2013-08-23 16:54:00,
2013-08-23 12:59:00,77.3,70.3,0.00,West,270,0.0,0.0,79,0.00,,,0.00,WUHU216HW,2013-08-23 16:59:00,
2013-08-23 13:04:00,77.3,70.3,0.00,West,270,0.0,0.0,79,0.00,,,0.00,WUHU216HW,2013-08-23 17:04:00,
2013-08-23 13:09:00,77.7,70.2,0.00,WNW,293,0.0,0.0,78,0.00,,,0.00,WUHU216HW,2013-08-23 17:09:00,
2013-08-23 13:14:00,77.7,69.8,0.00,SW,225,0.0,0.0,77,0.00,,,0.00,WUHU216HW,2013-08-23 17:14:00,
2013-08-23 13:19:00,78.0,70.6,0.00,WSW,248,0.0,0.0,78,0.00,,,0.00,WUHU216HW,2013-08-23 17:19:00,
2013-08-23 13:24:00,78.4,70.5,0.00,South,180,0.0,0.0,77,0.00,,,0.00,WUHU216HW,2013-08-23 17:24:00,
2013-08-23 13:29:00,78.6,70.1,0.00,SSW,203,0.0,0.0,75,0.00,,,0.00,WUHU216HW,2013-08-23 17:29:00,
2013-08-23 13:34:00,79.1,70.3,0.00,WNW,293,0.0,0.0,74,0.00,,,0.00,WUHU216HW,2013-08-23 17:34:00,
2013-08-23 13:39:00,79.3,70.3,0.00,West,270,0.0,0.0,74,0.00,,,0.00,WUHU216HW,2013-08-23 17:39:00,
2013-08-23 13:44:00,79.5,70.0,0.00,WNW,293,0.0,0.0,73,0.00,,,0.00,WUHU216HW,2013-08-23 17:44:00,
2013-08-23 13:49:00,79.5,69.6,0.00,SSE,158,0.0,0.0,72,0.00,,,0.00,WUHU216HW,2013-08-23 17:49:00,
2013-08-23 13:54:00,79.7,69.8,0.00,West,270,0.0,0.0,72,0.00,,,0.00,WUHU216HW,2013-08-23 17:54:00,
2013-08-23 13:59:00,79.8,70.0,0.00,West,270,0.0,0.0,72,0.00,,,0.00,WUHU216HW,2013-08-23 17:59:00,
2013-08-23 14:04:00,79.7,69.8,0.00,WSW,248,0.0,0.0,72,0.00,,,0.00,WUHU216HW,2013-08-23 18:04:00,
2013-08-23 14:09:00,79.3,69.5,0.00,WNW,293,0.0,0.0,72,0.00,,,0.00,WUHU216HW,2013-08-23 18:09:00,
2013-08-23 14:15:00,79.3,69.5,0.00,NW,315,0.0,0.0,72,0.00,,,0.00,WUHU216HW,2013-08-23 18:15:00,
2013-08-23 14:17:00,79.1,69.5,0.00,SE,135,0.0,0.0,72,0.00,,,0.00,WUHU216HW,2013-08-23 18:17:00,
2013-08-23 14:29:00,79.3,69.5,0.00,NW,315,0.0,0.0,72,0.00,,,0.00,WUHU216HW,2013-08-23 18:29:00,
2013-08-23 14:35:00,79.7,69.8,0.00,West,270,0.0,0.0,72,0.00,,,0.00,WUHU216HW,2013-08-23 18:35:00,
2013-08-23 14:40:00,79.8,70.0,0.00,West,270,0.0,0.0,72,0.00,,,0.00,WUHU216HW,2013-08-23 18:40:00,
2013-08-23 14:45:00,79.8,69.6,0.00,West,270,0.0,0.0,71,0.00,,,0.00,WUHU216HW,2013-08-23 18:45:00,
2013-08-23 14:50:00,79.8,69.6,0.00,West,270,0.0,0.0,71,0.00,,,0.00,WUHU216HW,2013-08-23 18:50:00,
2013-08-23 15:01:00,79.5,69.6,0.00,West,270,0.0,0.0,72,0.00,,,0.00,WUHU216HW,2013-08-23 19:01:00,
2013-08-23 15:06:00,78.9,69.1,0.00,WNW,293,0.0,0.0,72,0.00,,,0.00,WUHU216HW,2013-08-23 19:06:00,
2013-08-23 15:11:00,78.6,68.7,0.00,WNW,293,0.0,0.0,72,0.00,,,0.00,WUHU216HW,2013-08-23 19:11:00,
2013-08-23 15:16:00,78.6,69.1,0.00,WNW,293,0.0,0.0,73,0.00,,,0.00,WUHU216HW,2013-08-23 19:16:00,
2013-08-23 15:21:00,78.8,68.9,0.00,WNW,293,0.0,0.0,72,0.00,,,0.00,WUHU216HW,2013-08-23 19:21:00,
2013-08-23 15:26:00,78.9,69.1,0.00,WNW,293,0.0,0.0,72,0.00,,,0.00,WUHU216HW,2013-08-23 19:26:00,
2013-08-23 15:31:00,78.9,69.1,0.00,WNW,293,0.0,0.0,72,0.00,,,0.00,WUHU216HW,2013-08-23 19:31:00,
2013-08-23 15:36:00,79.1,69.3,0.00,WNW,293,0.0,0.0,72,0.00,,,0.00,WUHU216HW,2013-08-23 19:36:00,
2013-08-23 15:41:00,79.1,69.3,0.00,WNW,293,0.0,0.0,72,0.00,,,0.00,WUHU216HW,2013-08-23 19:41:00,
2013-08-23 15:46:00,79.3,69.5,0.00,West,270,0.0,0.0,72,0.00,,,0.00,WUHU216HW,2013-08-23 19:46:00,
2013-08-23 15:51:00,79.3,69.9,0.00,SE,135,0.0,0.0,73,0.00,,,0.00,WUHU216HW,2013-08-23 19:51:00,
2013-08-23 15:56:00,79.3,69.9,0.00,West,270,0.0,0.0,73,0.00,,,0.00,WUHU216HW,2013-08-23 19:56:00,
2013-08-23 16:01:00,79.3,69.9,0.00,WNW,293,0.0,0.0,73,0.00,,,0.00,WUHU216HW,2013-08-23 20:01:00,
2013-08-23 16:06:00,79.3,69.9,0.00,West,270,0.0,0.0,73,0.00,,,0.00,WUHU216HW,2013-08-23 20:06:00,
2013-08-23 16:11:00,79.3,69.5,0.00,NW,315,0.0,0.0,72,0.00,,,0.00,WUHU216HW,2013-08-23 20:11:00,
2013-08-23 16:16:00,79.1,68.9,0.00,WNW,293,0.0,0.0,71,0.00,,,0.00,WUHU216HW,2013-08-23 20:16:00,
2013-08-23 16:21:00,79.1,69.3,0.00,NW,315,0.0,0.0,72,0.00,,,0.00,WUHU216HW,2013-08-23 20:21:00,
2013-08-23 16:26:00,79.1,69.3,0.00,North,0,0.0,0.0,72,0.00,,,0.00,WUHU216HW,2013-08-23 20:26:00,
2013-08-23 16:31:00,79.1,69.3,0.00,WNW,293,0.0,0.0,72,0.00,,,0.00,WUHU216HW,2013-08-23 20:31:00,
2013-08-23 16:36:00,79.5,69.5,0.00,West,270,0.0,0.0,72,0.00,,,0.00,WUHU216HW,2013-08-23 20:36:00,
2013-08-23 16:41:00,79.5,69.6,0.00,ESE,113,0.0,0.0,72,0.00,,,0.00,WUHU216HW,2013-08-23 20:41:00,
2013-08-23 16:46:00,79.5,69.2,0.00,WNW,293,0.0,0.0,71,0.00,,,0.00,WUHU216HW,2013-08-23 20:46:00,
2013-08-23 16:51:00,79.5,69.2,0.00,WNW,293,0.0,0.0,71,0.00,,,0.00,WUHU216HW,2013-08-23 20:51:00,
2013-08-23 16:56:00,79.5,69.6,0.00,West,270,0.0,0.0,72,0.00,,,0.00,WUHU216HW,2013-08-23 20:56:00,
2013-08-23 17:01:00,79.7,69.8,0.00,West,270,0.0,0.0,72,0.00,,,0.00,WUHU216HW,2013-08-23 21:01:00,
2013-08-23 17:06:00,79.8,70.0,0.00,WSW,248,0.0,0.0,72,0.00,,,0.00,WUHU216HW,2013-08-23 21:06:00,
2013-08-23 17:11:00,79.8,70.0,0.00,NE,45,0.0,0.0,72,0.00,,,0.00,WUHU216HW,2013-08-23 21:11:00,
2013-08-23 17:16:00,79.5,69.6,0.00,West,270,0.0,0.0,72,0.00,,,0.00,WUHU216HW,2013-08-23 21:16:00,
2013-08-23 17:21:00,79.1,69.5,0.00,WNW,293,0.0,0.0,72,0.00,,,0.00,WUHU216HW,2013-08-23 21:21:00,
2013-08-23 17:26:00,78.9,69.1,0.00,SSE,158,0.0,0.0,73,0.00,,,0.00,WUHU216HW,2013-08-23 21:26:00,
2013-08-23 17:31:00,78.6,69.1,0.00,South,180,0.0,0.0,73,0.00,,,0.00,WUHU216HW,2013-08-23 21:31:00,
2013-08-23 17:36:00,78.2,68.8,0.00,WSW,248,0.0,0.0,73,0.00,,,0.00,WUHU216HW,2013-08-23 21:36:00,
2013-08-23 17:41:00,77.7,68.7,0.00,WSW,248,0.0,0.0,74,0.00,,,0.00,WUHU216HW,2013-08-23 21:41:00,
2013-08-23 17:46:00,77.5,68.5,0.00,WSW,248,0.0,0.0,74,0.00,,,0.00,WUHU216HW,2013-08-23 21:46:00,
2013-08-23 17:51:00,77.1,68.2,0.00,WSW,248,0.0,0.0,74,0.00,,,0.00,WUHU216HW,2013-08-23 21:51:00,
2013-08-23 17:56:00,76.8,67.8,0.00,WSW,248,0.0,0.0,74,0.00,,,0.00,WUHU216HW,2013-08-23 21:56:00,
2013-08-23 18:01:00,76.6,67.9,0.00,WNW,293,0.0,0.0,75,0.00,,,0.00,WUHU216HW,2013-08-23 22:01:00,
2013-08-23 18:06:00,76.1,67.5,0.00,WNW,293,0.0,0.0,75,0.00,,,0.00,WUHU216HW,2013-08-23 22:06:00,
2013-08-23 18:11:00,75.7,67.2,0.00,WNW,293,0.0,0.0,75,0.00,,,0.00,WUHU216HW,2013-08-23 22:11:00,
2013-08-23 18:16:00,75.5,67.4,0.00,WNW,293,0.0,0.0,76,0.00,,,0.00,WUHU216HW,2013-08-23 22:16:00,
2013-08-23 18:21:00,75.3,67.2,0.00,WNW,293,0.0,0.0,76,0.00,,,0.00,WUHU216HW,2013-08-23 22:21:00,
2013-08-23 18:26:00,75.0,66.9,0.00,WNW,293,0.0,0.0,76,0.00,,,0.00,WUHU216HW,2013-08-23 22:26:00,
2013-08-23 18:31:00,75.0,66.9,0.00,WNW,293,0.0,0.0,76,0.00,,,0.00,WUHU216HW,2013-08-23 22:31:00,
2013-08-23 18:36:00,74.8,67.1,0.00,WNW,293,0.0,0.0,77,0.00,,,0.00,WUHU216HW,2013-08-23 22:36:00,
2013-08-23 18:41:00,74.4,66.8,0.00,WNW,293,0.0,0.0,77,0.00,,,0.00,WUHU216HW,2013-08-23 22:41:00,
2013-08-23 18:46:00,74.4,67.2,0.00,WNW,293,0.0,0.0,78,0.00,,,0.00,WUHU216HW,2013-08-23 22:46:00,
2013-08-23 18:51:00,74.3,67.0,0.00,WNW,293,0.0,0.0,78,0.00,,,0.00,WUHU216HW,2013-08-23 22:51:00,
2013-08-23 18:56:00,74.3,67.0,0.00,WNW,293,0.0,0.0,78,0.00,,,0.00,WUHU216HW,2013-08-23 22:56:00,
2013-08-23 19:01:00,74.1,66.8,0.00,WNW,293,0.0,0.0,78,0.00,,,0.00,WUHU216HW,2013-08-23 23:01:00,
2013-08-23 19:06:00,73.9,66.6,0.00,WNW,293,0.0,0.0,78,0.00,,,0.00,WUHU216HW,2013-08-23 23:06:00,
2013-08-23 19:11:00,73.9,67.0,0.00,WNW,293,0.0,0.0,79,0.00,,,0.00,WUHU216HW,2013-08-23 23:11:00,
2013-08-23 19:16:00,73.7,66.8,0.00,WNW,293,0.0,0.0,79,0.00,,,0.00,WUHU216HW,2013-08-23 23:16:00,
2013-08-23 19:21:00,73.7,66.8,0.00,WNW,293,0.0,0.0,79,0.00,,,0.00,WUHU216HW,2013-08-23 23:21:00,
2013-08-23 19:27:00,73.7,66.8,0.00,WNW,293,0.0,0.0,79,0.00,,,0.00,WUHU216HW,2013-08-23 23:27:00,
2013-08-23 19:32:00,73.5,66.7,0.00,WNW,293,0.0,0.0,79,0.00,,,0.00,WUHU216HW,2013-08-23 23:32:00,
2013-08-23 19:37:00,73.4,66.9,0.00,WNW,293,0.0,0.0,80,0.00,,,0.00,WUHU216HW,2013-08-23 23:37:00,
2013-08-23 19:42:00,73.2,66.7,0.00,WNW,293,0.0,0.0,80,0.00,,,0.00,WUHU216HW,2013-08-23 23:42:00,
2013-08-23 19:46:00,73.2,66.7,0.00,WNW,293,0.0,0.0,80,0.00,,,0.00,WUHU216HW,2013-08-23 23:46:00,
2013-08-23 19:51:00,73.0,66.5,0.00,WNW,293,0.0,0.0,80,0.00,,,0.00,WUHU216HW,2013-08-23 23:51:00,
2013-08-23 19:57:00,72.6,66.3,0.00,WNW,293,0.0,0.0,80,0.00,,,0.00,WUHU216HW,2013-08-23 23:57:00,
2013-08-23 20:02:00,72.6,66.2,0.00,WNW,293,0.0,0.0,80,0.00,,,0.00,WUHU216HW,2013-08-24 00:02:00,
2013-08-23 20:07:00,72.5,66.0,0.00,WNW,293,0.0,0.0,80,0.00,,,0.00,WUHU216HW,2013-08-24 00:07:00,
2013-08-23 20:12:00,72.3,66.0,0.00,WNW,293,0.0,0.0,81,0.00,,,0.00,WUHU216HW,2013-08-24 00:12:00,
2013-08-23 20:17:00,71.9,65.8,0.00,WNW,293,0.0,0.0,81,0.00,,,0.00,WUHU216HW,2013-08-24 00:17:00,
2013-08-23 20:22:00,71.7,65.6,0.00,WNW,293,0.0,0.0,81,0.00,,,0.00,WUHU216HW,2013-08-24 00:22:00,
2013-08-23 20:27:00,71.4,65.2,0.00,WNW,293,0.0,0.0,81,0.00,,,0.00,WUHU216HW,2013-08-24 00:27:00,
2013-08-23 20:32:00,71.4,65.6,0.00,WNW,293,0.0,0.0,82,0.00,,,0.00,WUHU216HW,2013-08-24 00:32:00,
2013-08-23 20:37:00,71.4,65.6,0.00,WNW,293,0.0,0.0,82,0.00,,,0.00,WUHU216HW,2013-08-24 00:37:00,
2013-08-23 20:42:00,71.2,65.4,0.00,WNW,293,0.0,0.0,82,0.00,,,0.00,WUHU216HW,2013-08-24 00:42:00,
2013-08-23 20:47:00,71.2,65.4,0.00,WNW,293,0.0,0.0,82,0.00,,,0.00,WUHU216HW,2013-08-24 00:47:00,
2013-08-23 20:52:00,70.8,65.4,0.00,WNW,293,0.0,0.0,83,0.00,,,0.00,WUHU216HW,2013-08-24 00:52:00,
2013-08-23 20:57:00,70.8,65.4,0.00,WNW,293,0.0,0.0,83,0.00,,,0.00,WUHU216HW,2013-08-24 00:57:00,
2013-08-23 21:02:00,70.7,65.2,0.00,WNW,293,0.0,0.0,83,0.00,,,0.00,WUHU216HW,2013-08-24 01:02:00,
2013-08-23 21:07:00,70.5,65.0,0.00,WNW,293,0.0,0.0,83,0.00,,,0.00,WUHU216HW,2013-08-24 01:07:00,
2013-08-23 21:12:00,70.3,64.8,0.00,WNW,293,0.0,0.0,83,0.00,,,0.00,WUHU216HW,2013-08-24 01:12:00,
2013-08-23 21:17:00,70.1,64.7,0.00,WNW,293,0.0,0.0,83,0.00,,,0.00,WUHU216HW,2013-08-24 01:17:00,
2013-08-23 21:22:00,69.9,64.8,0.00,WNW,293,0.0,0.0,84,0.00,,,0.00,WUHU216HW,2013-08-24 01:22:00,
2013-08-23 21:27:00,69.6,64.5,0.00,WNW,293,0.0,0.0,84,0.00,,,0.00,WUHU216HW,2013-08-24 01:27:00,
2013-08-23 21:32:00,69.6,64.5,0.00,WNW,293,0.0,0.0,84,0.00,,,0.00,WUHU216HW,2013-08-24 01:32:00,
2013-08-23 21:37:00,69.6,64.5,0.00,WNW,293,0.0,0.0,84,0.00,,,0.00,WUHU216HW,2013-08-24 01:37:00,
2013-08-23 21:42:00,69.6,64.5,0.00,WNW,293,0.0,0.0,84,0.00,,,0.00,WUHU216HW,2013-08-24 01:42:00,
2013-08-23 21:47:00,69.6,64.5,0.00,WNW,293,0.0,0.0,84,0.00,,,0.00,WUHU216HW,2013-08-24 01:47:00,
2013-08-23 21:52:00,69.4,64.3,0.00,North,0,0.0,0.0,84,0.00,,,0.00,WUHU216HW,2013-08-24 01:52:00,
2013-08-23 21:57:00,69.4,64.3,0.00,WNW,293,0.0,0.0,84,0.00,,,0.00,WUHU216HW,2013-08-24 01:57:00,
2013-08-23 22:02:00,69.4,64.6,0.00,WNW,293,0.0,0.0,85,0.00,,,0.00,WUHU216HW,2013-08-24 02:02:00,
2013-08-23 22:07:00,69.4,64.6,0.00,WNW,293,0.0,0.0,85,0.00,,,0.00,WUHU216HW,2013-08-24 02:07:00,
2013-08-23 22:12:00,69.0,64.3,0.00,WNW,293,0.0,0.0,85,0.00,,,0.00,WUHU216HW,2013-08-24 02:12:00,
2013-08-23 22:17:00,68.9,64.1,0.00,WNW,293,0.0,0.0,85,0.00,,,0.00,WUHU216HW,2013-08-24 02:17:00,
2013-08-23 22:22:00,68.7,64.0,0.00,WNW,293,0.0,0.0,85,0.00,,,0.00,WUHU216HW,2013-08-24 02:22:00,
2013-08-23 22:27:00,68.7,64.0,0.00,WNW,293,0.0,0.0,85,0.00,,,0.00,WUHU216HW,2013-08-24 02:27:00,
2013-08-23 22:32:00,68.5,63.8,0.00,WNW,293,0.0,0.0,85,0.00,,,0.00,WUHU216HW,2013-08-24 02:32:00,
2013-08-23 22:37:00,68.5,64.1,0.00,WNW,293,0.0,0.0,86,0.00,,,0.00,WUHU216HW,2013-08-24 02:37:00,
2013-08-23 22:42:00,68.5,64.1,0.00,WNW,293,0.0,0.0,86,0.00,,,0.00,WUHU216HW,2013-08-24 02:42:00,
2013-08-23 22:47:00,68.3,63.9,0.00,WNW,293,0.0,0.0,86,0.00,,,0.00,WUHU216HW,2013-08-24 02:47:00,
2013-08-23 22:52:00,68.1,63.8,0.00,WNW,293,0.0,0.0,86,0.00,,,0.00,WUHU216HW,2013-08-24 02:52:00,
2013-08-23 22:57:00,68.1,63.8,0.00,WNW,293,0.0,0.0,86,0.00,,,0.00,WUHU216HW,2013-08-24 02:57:00,
2013-08-23 23:02:00,68.1,64.1,0.00,WNW,293,0.0,0.0,87,0.00,,,0.00,WUHU216HW,2013-08-24 03:02:00,
2013-08-23 23:07:00,67.8,63.7,0.00,WNW,293,0.0,0.0,87,0.00,,,0.00,WUHU216HW,2013-08-24 03:07:00,
2013-08-23 23:12:00,68.0,63.9,0.00,WNW,293,0.0,0.0,87,0.00,,,0.00,WUHU216HW,2013-08-24 03:12:00,
2013-08-23 23:17:00,68.1,64.1,0.00,WNW,293,0.0,0.0,87,0.00,,,0.00,WUHU216HW,2013-08-24 03:17:00,
2013-08-23 23:22:00,68.1,64.1,0.00,WNW,293,0.0,0.0,87,0.00,,,0.00,WUHU216HW,2013-08-24 03:22:00,
2013-08-23 23:27:00,68.1,64.1,0.00,WNW,293,0.0,0.0,87,0.00,,,0.00,WUHU216HW,2013-08-24 03:27:00,
2013-08-23 23:32:00,68.0,64.1,0.00,WNW,293,0.0,0.0,87,0.00,,,0.00,WUHU216HW,2013-08-24 03:32:00,
2013-08-23 23:37:00,67.8,63.7,0.00,WNW,293,0.0,0.0,87,0.00,,,0.00,WUHU216HW,2013-08-24 03:37:00,
2013-08-23 23:42:00,67.6,63.6,0.00,WNW,293,0.0,0.0,87,0.00,,,0.00,WUHU216HW,2013-08-24 03:42:00,
2013-08-23 23:47:00,67.6,63.6,0.00,WNW,293,0.0,0.0,87,0.00,,,0.00,WUHU216HW,2013-08-24 03:47:00,
2013-08-23 23:52:00,67.6,63.6,0.00,WNW,293,0.0,0.0,87,0.00,,,0.00,WUHU216HW,2013-08-24 03:52:00,
2013-08-23 23:57:00,67.6,63.6,0.00,WNW,293,0.0,0.0,87,0.00,,,0.00,WUHU216HW,2013-08-24 03:57:00,